Regional Weather Roundup
Issued by NWS

Home | Current Version | Previous Version | Graphics & Text | Print | Product List | Glossary On
Versions: 1 2 3 4 5 6 7 8 9 10 11 12 13 14 15 16 17 18 19 20 21 22 23 24 25 26 27 28 29 30 31 32 33 34 35 36 37 38 39 40 41 42 43 44 45 46 47 48 49 50
000
ASUS45 KCYS 222310
RWRWY

WYOMING REGIONAL WEATHER ROUNDUP
NATIONAL WEATHER SERVICE CHEYENNE WY
500 PM MDT MON MAY 22 2017

NOTE:  "FAIR" INDICATES FEW OR NO CLOUDS BELOW 12,000 FEET
WITH NO SIGNIFICANT WEATHER AND/OR OBSTRUCTIONS TO VISIBILITY.

WYZ001-230000-
YELLOWSTONE NATIONAL PARK

CITY           SKY/WX    TMP DP  RH WIND       PRES   REMARKS
LK YELLOWSTONE   N/A     51  28  41 N9G20     30.35F
W YELLOWSTONE  NOT AVBL

$$
WYZ002>013-054>058-071-098>099-230000-
NORTHERN WYOMING

CITY           SKY/WX    TMP DP  RH WIND       PRES   REMARKS
JACKSON        PTSUNNY   57  30  35 N8        30.25S
CODY           FAIR      55  36  48 NW14      30.27S
GREYBULL       PTSUNNY   60  42  51 NW18G28   30.19R
WORLAND        PTSUNNY   59  43  55 NW15      30.21R
SHERIDAN       PTSUNNY   59  42  53 W9        30.17F
BUFFALO        PTSUNNY   50  41  71 N12       30.20R
GILLETTE       PTSUNNY   56  42  59 N12       30.15S
HULETT         FAIR      52  41  66 NE3       30.14F
NEWCASTLE      FAIR      54  34  47 N22G29    30.13S

$$
WYZ014>020-022>026-101>103-230000-
CENTRAL WYOMING

CITY           SKY/WX    TMP DP  RH WIND       PRES   REMARKS
BIG PINEY      PTSUNNY   63  26  24 N22G30    30.22S
PINEDALE       FAIR      57  32  38 N20G32    30.23R
DUBOIS         CLOUDY    45  32  61 E6G16     30.28R
LANDER         LGT RAIN  44  37  76 W14       30.30F
RIVERTON       LGT RAIN  47  40  76 W14       30.28F
CASPER         CLOUDY    49  39  68 N12       30.23R
DOUGLAS        FAIR      53  35  50 NW22G32   30.18S

$$
WYZ021-027>030-104>119-230000-
SOUTHERN WYOMING

CITY           SKY/WX    TMP DP  RH WIND       PRES   REMARKS
EVANSTON       PTSUNNY   61  33  35 NW17G25   30.26F
KEMMERER         N/A     61  30  31 W18G29    30.26S
FORT BRIDGER   MOCLDY    66  30  26 NW20G32   30.28S
ROCK SPRINGS   PTSUNNY   48  34  58 E29G38    30.25R
DIXON            N/A     45  37  74 NE30G44   30.26R
RAWLINS        CLOUDY    39  35  86 CALM      30.29R
LARAMIE        LGT RAIN  37  36  96 N20G32    30.22F WCI  27
CHEYENNE       CLOUDY    40  36  86 NW17G25   30.18F WCI  31
TORRINGTON     FAIR      52  36  54 NW18G32   30.12R
PINE BLUFFS    CLOUDY    45  43  93 NW20G30   30.17R

$$



USA.gov is the U.S. government's official web portal to all federal, state and local government web resources and services.